#timestamp,LO_Frequency,Hit,StdDev 
1510779615.9,286047000.3,N
1510779635.7,286046998.1,N
1510779655.6,286047000.4,N
1510779675.4,286047001.2,N
1510779695.3,286046996.6,N
1510779715.1,286046996.7,N
1510779716.0,286046996.7,N
1510779735.8,286046996.7,N
1510779755.7,286046998.6,N
1510779775.5,286046998.2,N
1510779795.3,286046999.8,N
1510779815.2,286046999.8,N
1510779835.0,286047000.0,N
1510779835.9,286047000.0,N
1510779855.8,286047000.0,N
1510779875.6,286047000.5,N
1510779895.4,286047001.2,N
1510779915.3,286047001.2,N
1510779935.1,286047002.4,N
1510779955.8,286047000.8,N
1510779975.7,286046999.7,N
1510779995.5,286047001.2,N
1510780015.4,286047002.2,N
1510780035.2,286047000.6,N
1510780055.0,286047004.2,N
1510780055.9,286047004.2,N
1510780075.8,286047002.6,N
1510780095.6,286047000.2,N
1510780115.4,286047002.6,N
1510780135.3,286047001.7,N
1510780155.1,286047001.6,N
1510780175.9,286047002.8,N
1510780195.7,286047002.7,N
1510780215.5,286047000.1,N
1510780235.4,286046998.3,N
1510780255.2,286047000.9,N
1510780275.1,286047001.2,N
1510780276.0,286047001.2,N
1510780295.8,286047000.9,N
1510780315.6,286047001.1,N
1510780335.5,286046998.1,N
1510780355.3,286046998.6,N
1510780375.2,286047001.0,N
1510780395.9,286047001.0,N
1510780415.7,286047001.0,N
1510780435.6,286047001.1,N
1510780455.4,286046998.5,N
1510780475.2,286046998.7,N
1510780495.1,286047000.4,N
1510780496.0,286047000.4,N
1510780515.8,286047000.4,N
1510780535.7,286047002.5,N
1510780555.5,286047001.8,N
1510780575.3,286047002.0,N
1510780595.2,286047000.0,N
1510780615.0,286047002.4,N
1510780615.9,286047002.4,N
1510780635.8,286047002.1,N
1510780655.6,286047001.7,N
1510780675.4,286047001.5,N
1510780695.3,286047002.3,N
1510780715.1,286047001.3,N
1510780735.8,286047002.1,N
1510780755.7,286046998.7,N
1510780775.5,286046997.8,N
1510780795.4,286046999.3,N
1510780815.2,286046998.2,N
1510780835.0,286046999.2,N
1510780835.9,286046999.2,N
1510780855.8,286046998.4,N
1510780875.6,286046998.1,N
1510780895.4,286046999.1,N
1510780915.3,286046997.2,N
1510780935.1,286046998.7,N
1510780955.9,286046998.2,N
1510780975.7,286047002.2,N
1510780995.5,286047001.6,N
1510781015.4,286047004.4,N
1510781035.2,286047004.1,N
1510781055.0,286047001.4,N
1510781056.0,286047001.4,N
1510781075.8,286047002.8,N
1510781095.6,286047000.3,N
1510781115.5,286047001.9,N
1510781135.3,286047001.5,N
1510781155.1,286047000.7,N
1510781175.9,286047000.0,N
1510781195.7,286047002.0,N
1510781215.6,286047004.0,N
1510781235.4,286047004.0,N
1510781255.2,286047002.3,N
1510781275.1,286047002.2,N
1510781276.0,286047002.2,N
1510781295.8,286047002.5,N
1510781315.6,286047002.7,N
1510781335.5,286047000.7,N
1510781355.3,286047000.6,N
1510781375.2,286047001.0,N
1510781395.0,286046998.5,N
1510781395.9,286046998.5,N
1510781415.7,286047001.1,N
1510781435.6,286047001.2,N
1510781455.4,286046998.9,N
1510781475.3,286046998.9,N
1510781495.1,286046999.4,N
1510781515.8,286046999.3,N
1510781535.7,286047000.2,N
1510781555.5,286047002.6,N
1510781575.4,286047002.7,N
1510781595.2,286047002.0,N
1510781615.0,286047003.7,N
1510781615.9,286047003.7,N
1510781635.8,286047002.9,N
1510781655.6,286047004.0,N
1510781675.4,286047002.2,N
1510781695.3,286047002.2,N
1510781715.1,286047002.0,N
1510781735.9,286047002.1,N
1510781755.7,286047001.3,N
1510781775.5,286047000.5,N
1510781795.4,286047000.0,N
1510781815.2,286047001.0,N
1510781835.1,286046998.1,N
1510781836.0,286046998.1,N
1510781855.8,286047000.5,N
1510781875.6,286047000.7,N
1510781895.5,286047000.0,N
1510781915.3,286047001.2,N
1510781935.1,286047000.5,N
1510781955.9,286046999.9,N
1510781975.7,286047001.6,N
1510781995.6,286047001.3,N
1510782015.4,286047004.1,N
1510782035.2,286047001.5,N
1510782055.1,286047004.3,N
1510782056.0,286047004.3,N
1510782075.8,286047001.6,N
1510782095.7,286047003.4,N
1510782115.5,286047003.2,N
1510782135.3,286047003.4,N
1510782155.2,286047003.3,N
1510782175.0,286047001.4,N
1510782175.9,286047001.4,N
1510782195.8,286047001.9,N
1510782215.6,286047002.6,N
1510782235.4,286047004.2,N
1510782255.3,286047003.1,N
1510782275.1,286047002.9,N
1510782295.8,286047003.3,N
1510782315.7,286047005.5,Y
1510782335.5,286047001.8,P
1510782355.4,286047003.6,P
1510782375.2,286047001.6,N
1510782395.0,286047002.1,N
1510782395.9,286047002.1,N
1510782415.8,286047000.0,N
1510782435.6,286047002.3,N
1510782455.4,286047004.3,Y
1510782475.3,286046998.3,P
1510782495.1,286047002.8,N
1510782515.9,286047002.4,N
1510782535.7,286047000.8,N
1510782555.5,286047001.0,N
1510782575.4,286046998.7,N
1510782595.2,286046998.3,N
1510782615.0,286046998.1,N
1510782615.9,286046998.1,N
1510782635.8,286046998.7,N
1510782655.6,286046999.0,N
1510782675.5,286046998.1,N
1510782695.3,286046998.5,N
1510782715.1,286046998.3,N
1510782735.9,286046997.3,N
1510782755.7,286046996.9,N
1510782775.5,286046998.4,N
1510782795.4,286046997.0,N
1510782815.2,286046997.8,N
1510782835.1,286046999.0,N
1510782836.0,286046999.0,N
1510782855.8,286046997.7,N
1510782875.6,286046996.8,N
1510782895.5,286046999.4,N
1510782915.3,286046996.6,N
1510782935.2,286047001.2,N
1510782955.9,286047000.4,N
1510782975.7,286046998.9,N
1510782995.6,286046996.6,N
1510783015.4,286046998.3,N
1510783035.3,286046999.1,N
1510783055.1,286046998.8,N
1510783056.0,286046998.8,N
1510783075.8,286046997.0,N
1510783095.7,286046998.5,N
1510783115.5,286046998.1,N
1510783135.4,286046999.4,N
1510783155.2,286046999.0,N
1510783175.0,286047000.7,N
1510783175.9,286047000.7,N
1510783195.8,286047000.8,N
